Location: *
(43.9905°S, 176.4941°W)
Time: 09:07:54
(UTC+00:00)

SL-14 R/B - Pass Details

Date: 08 December 2019
Orbit: 519 x 554 km, 82.4° (Epoch: 21 January)

Event Time Altitude Azimuth Distance (km) Brightness Sun altitude
Rises 09:37:45 0° 180° (S) 2,692 7.9 -17.9°
Reaches altitude 10° 09:40:05 10° 170° (S) 1,792 6.7 -18.1°
Maximum altitude 09:43:40 33° 104° (ESE) 901 4.2 -18.4°
Enters shadow 09:44:23 31° 81° (E) 950 4.2 -18.4°
